Time,TemperatureF,DewpointF,PressureIn,WindDirection,WindDirectionDegrees,WindSpeedMPH,WindSpeedGustMPH,Humidity,HourlyPrecipIn,Conditions,Clouds,dailyrainin,SoftwareType,DateUTC
2013-03-05 00:00:00,58.6,53.1,29.80,South,170,12.0,13.0,82,0.00,,,0.00,WeatherCatV1.02B3,2013-03-05 06:00:00,
2013-03-05 00:05:00,58.6,53.1,29.80,South,185,8.0,12.0,82,0.00,,,0.00,WeatherCatV1.02B3,2013-03-05 06:05:00,
2013-03-05 00:10:00,58.8,53.6,29.80,SSE,167,9.0,12.0,83,0.00,,,0.00,WeatherCatV1.02B3,2013-03-05 06:10:00,
2013-03-05 00:15:00,58.9,53.7,29.80,South,189,12.0,12.0,83,0.00,,,0.00,WeatherCatV1.02B3,2013-03-05 06:15:00,
2013-03-05 00:20:00,59.1,54.3,29.80,South,169,10.0,15.0,84,0.00,,,0.00,WeatherCatV1.02B3,2013-03-05 06:20:00,
2013-03-05 00:25:00,59.6,54.4,29.80,South,171,15.0,18.0,83,0.00,,,0.00,WeatherCatV1.02B3,2013-03-05 06:25:00,
2013-03-05 00:30:00,60.0,54.8,29.80,South,175,12.0,14.0,83,0.00,,,0.00,WeatherCatV1.02B3,2013-03-05 06:30:00,
2013-03-05 00:35:00,59.9,54.4,29.80,SSW,192,8.0,18.0,82,0.00,,,0.00,WeatherCatV1.02B3,2013-03-05 06:35:00,
2013-03-05 00:40:00,59.8,54.6,29.80,South,186,10.0,14.0,83,0.00,,,0.00,WeatherCatV1.02B3,2013-03-05 06:40:00,
2013-03-05 00:45:00,59.8,54.6,29.80,South,172,10.0,16.0,83,0.00,,,0.00,WeatherCatV1.02B3,2013-03-05 06:45:00,
2013-03-05 00:50:00,59.8,55.0,29.81,South,178,10.0,16.0,84,0.00,,,0.00,WeatherCatV1.02B3,2013-03-05 06:50:00,
2013-03-05 00:55:00,59.8,55.0,29.81,South,173,10.0,16.0,84,0.00,,,0.00,WeatherCatV1.02B3,2013-03-05 06:55:00,
2013-03-05 01:00:00,59.6,54.8,29.81,South,172,10.0,13.0,84,0.00,,,0.00,WeatherCatV1.02B3,2013-03-05 07:00:00,
2013-03-05 01:05:00,59.5,54.7,29.81,South,190,13.0,14.0,84,0.00,,,0.00,WeatherCatV1.02B3,2013-03-05 07:05:00,
2013-03-05 01:10:00,59.4,54.9,29.81,SSE,159,12.0,12.0,85,0.00,,,0.00,WeatherCatV1.02B3,2013-03-05 07:10:00,
2013-03-05 01:15:00,59.4,54.9,29.82,South,189,10.0,16.0,85,0.00,,,0.00,WeatherCatV1.02B3,2013-03-05 07:15:00,
2013-03-05 01:20:00,59.4,55.2,29.81,South,184,11.0,15.0,86,0.00,,,0.00,WeatherCatV1.02B3,2013-03-05 07:20:00,
2013-03-05 01:25:00,59.3,54.8,29.81,SSW,192,11.0,15.0,85,0.00,,,0.00,WeatherCatV1.02B3,2013-03-05 07:25:00,
2013-03-05 01:30:00,59.3,55.1,29.82,South,176,12.0,14.0,86,0.00,,,0.00,WeatherCatV1.02B3,2013-03-05 07:30:00,
2013-03-05 01:35:00,59.3,55.1,29.82,South,179,9.0,11.0,86,0.00,,,0.00,WeatherCatV1.02B3,2013-03-05 07:35:00,
2013-03-05 01:40:00,59.3,55.1,29.82,South,190,6.0,11.0,86,0.00,,,0.00,WeatherCatV1.02B3,2013-03-05 07:40:00,
2013-03-05 01:45:00,59.3,55.1,29.82,South,169,7.0,12.0,86,0.00,,,0.00,WeatherCatV1.02B3,2013-03-05 07:45:00,
2013-03-05 01:50:00,59.3,55.4,29.82,SSW,199,14.0,14.0,87,0.00,,,0.00,WeatherCatV1.02B3,2013-03-05 07:50:00,
2013-03-05 01:55:00,59.4,55.5,29.81,SSE,165,9.0,13.0,87,0.00,,,0.00,WeatherCatV1.02B3,2013-03-05 07:55:00,
2013-03-05 02:00:00,59.4,55.5,29.81,SSW,192,9.0,12.0,87,0.00,,,0.00,WeatherCatV1.02B3,2013-03-05 08:00:00,
2013-03-05 02:05:00,59.6,55.7,29.82,South,191,11.0,16.0,87,0.00,,,0.00,WeatherCatV1.02B3,2013-03-05 08:05:00,
2013-03-05 02:10:00,59.8,55.9,29.82,SSW,198,7.0,14.0,87,0.00,,,0.00,WeatherCatV1.02B3,2013-03-05 08:10:00,
2013-03-05 02:15:00,59.8,55.6,29.82,South,175,13.0,13.0,86,0.00,,,0.00,WeatherCatV1.02B3,2013-03-05 08:15:00,
2013-03-05 02:20:00,59.8,55.9,29.81,South,176,6.0,13.0,87,0.00,,,0.00,WeatherCatV1.02B3,2013-03-05 08:20:00,
2013-03-05 02:25:00,59.7,55.8,29.81,South,174,8.0,13.0,87,0.00,,,0.00,WeatherCatV1.02B3,2013-03-05 08:25:00,
2013-03-05 02:30:00,59.6,55.7,29.81,South,183,9.0,14.0,87,0.00,,,0.00,WeatherCatV1.02B3,2013-03-05 08:30:00,
2013-03-05 02:35:00,59.8,55.9,29.81,South,185,6.0,12.0,87,0.00,,,0.00,WeatherCatV1.02B3,2013-03-05 08:35:00,
2013-03-05 02:40:00,59.9,56.0,29.80,South,186,7.0,15.0,87,0.00,,,0.00,WeatherCatV1.02B3,2013-03-05 08:40:00,
2013-03-05 02:42:00,59.9,56.0,29.80,South,185,11.0,14.0,87,0.00,,,0.00,WeatherCatV1.02B3,2013-03-05 08:42:00,
2013-03-05 02:47:00,59.8,55.9,29.80,South,180,9.0,11.0,87,0.00,,,0.00,WeatherCatV1.02B3,2013-03-05 08:47:00,
2013-03-05 02:52:00,59.7,55.8,29.81,South,179,5.0,11.0,87,0.00,,,0.00,WeatherCatV1.02B3,2013-03-05 08:52:00,
2013-03-05 02:57:00,59.8,56.5,29.80,SSW,202,9.0,17.0,89,0.00,,,0.00,WeatherCatV1.02B3,2013-03-05 08:57:00,
2013-03-05 03:02:00,59.9,56.3,29.80,South,189,8.0,12.0,88,0.00,,,0.00,WeatherCatV1.02B3,2013-03-05 09:02:00,
2013-03-05 03:07:00,59.8,56.2,29.80,South,175,9.0,13.0,88,0.00,,,0.00,WeatherCatV1.02B3,2013-03-05 09:07:00,
2013-03-05 03:12:00,59.9,56.3,29.80,SSW,192,7.0,12.0,88,0.00,,,0.00,WeatherCatV1.02B3,2013-03-05 09:12:00,
2013-03-05 03:17:00,59.8,56.2,29.81,South,179,9.0,15.0,88,0.00,,,0.00,WeatherCatV1.02B3,2013-03-05 09:17:00,
2013-03-05 03:22:00,59.9,56.6,29.81,SSW,194,8.0,13.0,89,0.00,,,0.00,WeatherCatV1.02B3,2013-03-05 09:22:00,
2013-03-05 03:27:00,59.8,56.2,29.81,SSW,196,9.0,11.0,88,0.00,,,0.00,WeatherCatV1.02B3,2013-03-05 09:27:00,
2013-03-05 03:32:00,59.8,56.2,29.81,South,186,9.0,11.0,88,0.00,,,0.00,WeatherCatV1.02B3,2013-03-05 09:32:00,
2013-03-05 03:37:00,60.0,56.4,29.82,SSW,205,8.0,10.0,88,0.00,,,0.00,WeatherCatV1.02B3,2013-03-05 09:37:00,
2013-03-05 03:42:00,60.0,56.7,29.82,SSW,203,10.0,13.0,89,0.00,,,0.00,WeatherCatV1.02B3,2013-03-05 09:42:00,
2013-03-05 03:47:00,60.2,56.9,29.83,SW,221,9.0,10.0,89,0.00,,,0.00,WeatherCatV1.02B3,2013-03-05 09:47:00,
2013-03-05 03:52:00,60.1,56.8,29.83,SSW,211,8.0,10.0,89,0.00,,,0.00,WeatherCatV1.02B3,2013-03-05 09:52:00,
2013-03-05 03:57:00,59.8,56.2,29.83,SSW,194,6.0,8.0,88,0.00,,,0.00,WeatherCatV1.02B3,2013-03-05 09:57:00,
2013-03-05 04:02:00,59.5,56.6,29.83,SSW,208,8.0,13.0,90,0.00,,,0.00,WeatherCatV1.02B3,2013-03-05 10:02:00,
2013-03-05 04:07:00,59.7,56.8,29.83,SSW,207,7.0,10.0,90,0.00,,,0.00,WeatherCatV1.02B3,2013-03-05 10:07:00,
2013-03-05 04:12:00,59.6,56.7,29.83,SSW,213,9.0,11.0,90,0.00,,,0.00,WeatherCatV1.02B3,2013-03-05 10:12:00,
2013-03-05 04:17:00,59.5,56.3,29.83,SSW,195,8.0,10.0,89,0.00,,,0.00,WeatherCatV1.02B3,2013-03-05 10:17:00,
2013-03-05 04:22:00,59.4,56.5,29.82,South,185,9.0,13.0,90,0.00,,,0.00,WeatherCatV1.02B3,2013-03-05 10:22:00,
2013-03-05 04:27:00,59.4,56.5,29.82,SSW,202,9.0,11.0,90,0.00,,,0.00,WeatherCatV1.02B3,2013-03-05 10:27:00,
2013-03-05 04:32:00,59.4,56.5,29.82,SSW,195,8.0,11.0,90,0.00,,,0.00,WeatherCatV1.02B3,2013-03-05 10:32:00,
2013-03-05 04:37:00,59.3,56.4,29.82,SSW,202,8.0,10.0,90,0.00,,,0.00,WeatherCatV1.02B3,2013-03-05 10:37:00,
2013-03-05 04:42:00,59.4,56.5,29.83,SSW,201,8.0,11.0,90,0.00,,,0.00,WeatherCatV1.02B3,2013-03-05 10:42:00,
2013-03-05 04:47:00,59.4,56.5,29.83,SSW,205,8.0,10.0,90,0.00,,,0.00,WeatherCatV1.02B3,2013-03-05 10:47:00,
2013-03-05 04:52:00,59.5,56.9,29.83,SSW,194,8.0,12.0,91,0.00,,,0.00,WeatherCatV1.02B3,2013-03-05 10:52:00,
2013-03-05 04:57:00,59.5,56.9,29.83,SSW,211,10.0,12.0,91,0.00,,,0.00,WeatherCatV1.02B3,2013-03-05 10:57:00,
2013-03-05 05:02:00,59.5,56.9,29.83,SSW,202,9.0,12.0,91,0.00,,,0.00,WeatherCatV1.02B3,2013-03-05 11:02:00,
2013-03-05 05:07:00,59.3,56.7,29.83,SSW,205,8.0,10.0,91,0.00,,,0.00,WeatherCatV1.02B3,2013-03-05 11:07:00,
2013-03-05 05:12:00,59.4,56.8,29.83,SSW,200,9.0,12.0,91,0.00,,,0.00,WeatherCatV1.02B3,2013-03-05 11:12:00,
2013-03-05 05:17:00,59.5,56.9,29.83,SSW,198,9.0,11.0,91,0.00,,,0.00,WeatherCatV1.02B3,2013-03-05 11:17:00,
2013-03-05 05:22:00,59.7,57.4,29.83,SSW,194,10.0,14.0,92,0.00,,,0.00,WeatherCatV1.02B3,2013-03-05 11:22:00,
2013-03-05 05:27:00,60.0,57.4,29.83,SSW,205,11.0,13.0,91,0.00,,,0.00,WeatherCatV1.02B3,2013-03-05 11:27:00,
2013-03-05 05:32:00,60.2,57.6,29.83,SSW,202,10.0,14.0,91,0.00,,,0.00,WeatherCatV1.02B3,2013-03-05 11:32:00,
2013-03-05 05:37:00,60.6,58.0,29.84,SSW,212,9.0,14.0,91,0.00,,,0.00,WeatherCatV1.02B3,2013-03-05 11:37:00,
2013-03-05 05:42:00,60.8,57.8,29.84,SSW,204,13.0,16.0,90,0.00,,,0.00,WeatherCatV1.02B3,2013-03-05 11:42:00,
2013-03-05 05:47:00,60.9,58.3,29.84,SSW,210,10.0,17.0,91,0.00,,,0.00,WeatherCatV1.02B3,2013-03-05 11:47:00,
2013-03-05 05:52:00,60.7,58.1,29.84,SSW,204,9.0,13.0,91,0.00,,,0.00,WeatherCatV1.02B3,2013-03-05 11:52:00,
2013-03-05 05:57:00,60.5,58.2,29.84,SSW,209,10.0,17.0,92,0.00,,,0.00,WeatherCatV1.02B3,2013-03-05 11:57:00,
2013-03-05 06:02:00,60.5,58.2,29.83,SSW,201,10.0,16.0,92,0.00,,,0.00,WeatherCatV1.02B3,2013-03-05 12:02:00,
2013-03-05 06:07:00,60.2,57.9,29.83,SSW,210,14.0,14.0,92,0.00,,,0.00,WeatherCatV1.02B3,2013-03-05 12:07:00,
2013-03-05 06:12:00,60.0,58.0,29.82,SSW,207,11.0,15.0,93,0.00,,,0.00,WeatherCatV1.02B3,2013-03-05 12:12:00,
2013-03-05 06:17:00,60.0,58.0,29.83,SW,215,12.0,16.0,93,0.00,,,0.00,WeatherCatV1.02B3,2013-03-05 12:17:00,
2013-03-05 06:22:00,59.9,57.9,29.83,SW,214,13.0,14.0,93,0.00,,,0.00,WeatherCatV1.02B3,2013-03-05 12:22:00,
2013-03-05 06:27:00,59.9,58.2,29.83,SSW,213,10.0,13.0,94,0.00,,,0.00,WeatherCatV1.02B3,2013-03-05 12:27:00,
2013-03-05 06:32:00,60.0,58.3,29.85,SW,230,11.0,14.0,94,0.00,,,0.00,WeatherCatV1.02B3,2013-03-05 12:32:00,
2013-03-05 06:37:00,59.9,58.2,29.84,SSW,211,9.0,13.0,94,0.00,,,0.00,WeatherCatV1.02B3,2013-03-05 12:37:00,
2013-03-05 06:42:00,59.9,58.2,29.83,SW,225,7.0,10.0,94,0.00,,,0.00,WeatherCatV1.02B3,2013-03-05 12:42:00,
2013-03-05 06:47:00,59.8,58.1,29.83,WSW,238,10.0,12.0,94,0.00,,,0.00,WeatherCatV1.02B3,2013-03-05 12:47:00,
2013-03-05 06:52:00,59.7,58.0,29.85,SW,236,12.0,14.0,94,0.00,,,0.00,WeatherCatV1.02B3,2013-03-05 12:52:00,
2013-03-05 06:57:00,59.7,58.0,29.86,SW,230,12.0,13.0,94,0.00,,,0.00,WeatherCatV1.02B3,2013-03-05 12:57:00,
2013-03-05 07:02:00,59.7,58.0,29.86,SW,229,8.0,11.0,94,0.00,,,0.00,WeatherCatV1.02B3,2013-03-05 13:02:00,
2013-03-05 07:07:00,59.8,58.4,29.85,WSW,242,10.0,10.0,95,0.00,,,0.01,WeatherCatV1.02B3,2013-03-05 13:07:00,
2013-03-05 07:12:00,60.0,58.6,29.84,WSW,240,11.0,11.0,95,0.00,,,0.01,WeatherCatV1.02B3,2013-03-05 13:12:00,
2013-03-05 07:17:00,60.0,58.6,29.86,West,268,6.0,9.0,95,0.00,,,0.01,WeatherCatV1.02B3,2013-03-05 13:17:00,
2013-03-05 07:22:00,59.9,58.5,29.85,WSW,237,6.0,8.0,95,0.00,,,0.01,WeatherCatV1.02B3,2013-03-05 13:22:00,
2013-03-05 07:27:00,59.9,58.5,29.85,West,271,12.0,14.0,95,0.00,,,0.01,WeatherCatV1.02B3,2013-03-05 13:27:00,
2013-03-05 07:32:00,59.5,56.6,29.87,WNW,303,21.0,21.0,90,0.00,,,0.01,WeatherCatV1.02B3,2013-03-05 13:32:00,
2013-03-05 07:37:00,58.4,54.9,29.89,WNW,298,11.0,19.0,88,0.00,,,0.01,WeatherCatV1.02B3,2013-03-05 13:37:00,
2013-03-05 07:42:00,57.4,53.9,29.89,WNW,300,17.0,20.0,88,0.00,,,0.01,WeatherCatV1.02B3,2013-03-05 13:42:00,
2013-03-05 07:47:00,56.7,53.5,29.87,NW,309,17.0,17.0,89,0.00,,,0.01,WeatherCatV1.02B3,2013-03-05 13:47:00,
2013-03-05 07:52:00,56.2,53.0,29.88,NW,325,16.0,20.0,89,0.00,,,0.01,WeatherCatV1.02B3,2013-03-05 13:52:00,
2013-03-05 07:57:00,55.5,51.7,29.88,NNW,343,17.0,24.0,87,0.00,,,0.01,WeatherCatV1.02B3,2013-03-05 13:57:00,
2013-03-05 08:02:00,55.0,50.9,29.88,NNW,332,15.0,22.0,86,0.00,,,0.01,WeatherCatV1.02B3,2013-03-05 14:02:00,
2013-03-05 08:07:00,54.7,50.9,29.88,NNW,342,17.0,22.0,87,0.00,,,0.01,WeatherCatV1.02B3,2013-03-05 14:07:00,
2013-03-05 08:12:00,54.6,50.8,29.91,NW,312,15.0,22.0,87,0.00,,,0.01,WeatherCatV1.02B3,2013-03-05 14:12:00,
2013-03-05 08:17:00,54.4,50.9,29.91,NW,316,16.0,23.0,88,0.00,,,0.01,WeatherCatV1.02B3,2013-03-05 14:17:00,
2013-03-05 08:22:00,54.2,50.4,29.91,NW,318,21.0,28.0,87,0.00,,,0.01,WeatherCatV1.02B3,2013-03-05 14:22:00,
2013-03-05 08:27:00,54.0,50.2,29.91,NW,311,19.0,26.0,87,0.00,,,0.01,WeatherCatV1.02B3,2013-03-05 14:27:00,
2013-03-05 08:32:00,53.5,49.4,29.92,NW,308,17.0,26.0,86,0.00,,,0.01,WeatherCatV1.02B3,2013-03-05 14:32:00,
2013-03-05 08:37:00,52.8,48.1,29.93,NNW,334,20.0,24.0,84,0.00,,,0.01,WeatherCatV1.02B3,2013-03-05 14:37:00,
2013-03-05 08:42:00,51.6,46.9,29.93,NNW,327,15.0,28.0,84,0.00,,,0.01,WeatherCatV1.02B3,2013-03-05 14:42:00,
2013-03-05 08:47:00,50.5,45.8,29.93,NNW,331,30.0,31.0,84,0.00,,,0.01,WeatherCatV1.02B3,2013-03-05 14:47:00,
2013-03-05 08:52:00,49.6,45.6,29.94,NW,309,29.0,30.0,86,0.00,,,0.01,WeatherCatV1.02B3,2013-03-05 14:52:00,
2013-03-05 08:57:00,49.0,45.3,29.95,NNW,330,17.0,29.0,87,0.00,,,0.01,WeatherCatV1.02B3,2013-03-05 14:57:00,
2013-03-05 09:02:00,48.6,44.9,29.95,NW,323,23.0,29.0,87,0.00,,,0.01,WeatherCatV1.02B3,2013-03-05 15:02:00,
2013-03-05 09:07:00,47.9,43.3,29.95,NW,321,26.0,29.0,84,0.00,,,0.01,WeatherCatV1.02B3,2013-03-05 15:07:00,
2013-03-05 09:12:00,46.8,42.2,29.95,NNW,333,14.0,28.0,84,0.00,,,0.01,WeatherCatV1.02B3,2013-03-05 15:12:00,
2013-03-05 09:17:00,46.3,42.3,29.96,NNW,328,25.0,27.0,86,0.00,,,0.01,WeatherCatV1.02B3,2013-03-05 15:17:00,
2013-03-05 09:22:00,46.0,42.3,29.96,NNW,329,19.0,27.0,87,0.00,,,0.02,WeatherCatV1.02B3,2013-03-05 15:22:00,
2013-03-05 09:27:00,46.0,42.6,29.97,NNW,333,15.0,24.0,88,0.00,,,0.02,WeatherCatV1.02B3,2013-03-05 15:27:00,
2013-03-05 09:32:00,46.0,42.9,29.97,NW,323,20.0,27.0,89,0.00,,,0.02,WeatherCatV1.02B3,2013-03-05 15:32:00,
2013-03-05 09:37:00,46.0,43.2,29.98,NNW,327,15.0,22.0,90,0.00,,,0.02,WeatherCatV1.02B3,2013-03-05 15:37:00,
2013-03-05 09:42:00,45.6,42.5,29.99,NNW,327,17.0,26.0,89,0.00,,,0.02,WeatherCatV1.02B3,2013-03-05 15:42:00,
2013-03-05 09:47:00,45.4,42.3,30.00,NNW,327,20.0,26.0,89,0.00,,,0.02,WeatherCatV1.02B3,2013-03-05 15:47:00,
2013-03-05 09:52:00,45.3,42.0,30.00,NW,321,19.0,20.0,88,0.00,,,0.02,WeatherCatV1.02B3,2013-03-05 15:52:00,
2013-03-05 09:57:00,45.1,41.5,30.00,NNW,338,18.0,28.0,87,0.00,,,0.02,WeatherCatV1.02B3,2013-03-05 15:57:00,
2013-03-05 10:02:00,45.1,41.2,30.01,NW,314,22.0,31.0,86,0.00,,,0.02,WeatherCatV1.02B3,2013-03-05 16:02:00,
2013-03-05 10:07:00,45.0,40.8,30.01,NW,323,28.0,29.0,85,0.00,,,0.02,WeatherCatV1.02B3,2013-03-05 16:07:00,
2013-03-05 10:12:00,45.1,41.2,30.01,NNW,339,16.0,23.0,86,0.00,,,0.02,WeatherCatV1.02B3,2013-03-05 16:12:00,
2013-03-05 10:17:00,45.1,40.9,30.02,NW,316,22.0,25.0,85,0.00,,,0.02,WeatherCatV1.02B3,2013-03-05 16:17:00,
2013-03-05 10:22:00,44.9,40.7,30.03,NW,317,20.0,28.0,85,0.00,,,0.02,WeatherCatV1.02B3,2013-03-05 16:22:00,
2013-03-05 10:27:00,44.9,40.7,30.03,NW,313,25.0,25.0,85,0.00,,,0.02,WeatherCatV1.02B3,2013-03-05 16:27:00,
2013-03-05 10:32:00,44.5,40.6,30.02,NNW,333,18.0,26.0,86,0.00,,,0.03,WeatherCatV1.02B3,2013-03-05 16:32:00,
2013-03-05 10:37:00,44.3,40.7,30.03,NNW,333,16.0,22.0,87,0.00,,,0.03,WeatherCatV1.02B3,2013-03-05 16:37:00,
2013-03-05 10:42:00,44.4,40.8,30.03,NW,324,13.0,19.0,87,0.00,,,0.03,WeatherCatV1.02B3,2013-03-05 16:42:00,
2013-03-05 10:47:00,44.5,40.9,30.03,NNW,331,16.0,16.0,87,0.00,,,0.03,WeatherCatV1.02B3,2013-03-05 16:47:00,
2013-03-05 10:52:00,46.3,42.3,30.04,NW,322,17.0,21.0,86,0.00,,,0.03,WeatherCatV1.02B3,2013-03-05 16:52:00,
2013-03-05 10:57:00,46.6,42.0,30.05,WNW,298,21.0,24.0,84,0.00,,,0.03,WeatherCatV1.02B3,2013-03-05 16:57:00,
2013-03-05 11:02:00,46.9,41.7,30.05,NW,308,18.0,26.0,82,0.00,,,0.03,WeatherCatV1.02B3,2013-03-05 17:02:00,
2013-03-05 11:07:00,47.2,42.3,30.06,NW,315,17.0,21.0,83,0.00,,,0.03,WeatherCatV1.02B3,2013-03-05 17:07:00,
2013-03-05 11:12:00,47.7,42.5,30.05,NNW,334,21.0,22.0,82,0.00,,,0.03,WeatherCatV1.02B3,2013-03-05 17:12:00,
2013-03-05 11:17:00,48.1,41.9,30.06,NNW,328,18.0,23.0,79,0.00,,,0.03,WeatherCatV1.02B3,2013-03-05 17:17:00,
2013-03-05 11:22:00,48.2,42.3,30.06,NNW,329,21.0,25.0,80,0.00,,,0.03,WeatherCatV1.02B3,2013-03-05 17:22:00,
2013-03-05 11:27:00,47.7,41.2,30.06,NNW,338,21.0,24.0,78,0.00,,,0.03,WeatherCatV1.02B3,2013-03-05 17:27:00,
2013-03-05 11:32:00,47.8,40.9,30.06,NNW,329,23.0,24.0,77,0.00,,,0.03,WeatherCatV1.02B3,2013-03-05 17:32:00,
2013-03-05 11:37:00,47.7,40.5,30.06,NW,325,26.0,26.0,76,0.00,,,0.03,WeatherCatV1.02B3,2013-03-05 17:37:00,
2013-03-05 11:42:00,47.8,41.3,30.07,NNW,341,19.0,21.0,78,0.00,,,0.03,WeatherCatV1.02B3,2013-03-05 17:42:00,
2013-03-05 11:47:00,47.5,40.3,30.07,NW,323,23.0,29.0,76,0.00,,,0.03,WeatherCatV1.02B3,2013-03-05 17:47:00,
2013-03-05 11:52:00,47.5,40.7,30.07,NW,326,18.0,21.0,77,0.00,,,0.03,WeatherCatV1.02B3,2013-03-05 17:52:00,
2013-03-05 11:57:00,47.6,40.4,30.07,NW,325,12.0,20.0,76,0.00,,,0.03,WeatherCatV1.02B3,2013-03-05 17:57:00,
2013-03-05 12:02:00,47.7,40.2,30.08,NW,325,17.0,26.0,75,0.00,,,0.03,WeatherCatV1.02B3,2013-03-05 18:02:00,
2013-03-05 12:07:00,47.7,40.5,30.08,NW,308,13.0,22.0,76,0.00,,,0.03,WeatherCatV1.02B3,2013-03-05 18:07:00,
2013-03-05 12:12:00,47.8,40.6,30.07,WNW,294,12.0,17.0,76,0.00,,,0.03,WeatherCatV1.02B3,2013-03-05 18:12:00,
2013-03-05 12:17:00,47.7,40.2,30.07,NNW,333,18.0,23.0,75,0.00,,,0.03,WeatherCatV1.02B3,2013-03-05 18:17:00,
2013-03-05 12:22:00,47.8,40.6,30.07,NW,306,16.0,21.0,76,0.00,,,0.03,WeatherCatV1.02B3,2013-03-05 18:22:00,
2013-03-05 12:27:00,48.0,40.5,30.07,NW,317,11.0,19.0,75,0.00,,,0.03,WeatherCatV1.02B3,2013-03-05 18:27:00,
2013-03-05 12:32:00,48.4,40.5,30.07,NW,321,16.0,19.0,74,0.00,,,0.03,WeatherCatV1.02B3,2013-03-05 18:32:00,
2013-03-05 12:37:00,48.7,40.1,30.07,NW,314,14.0,16.0,72,0.00,,,0.03,WeatherCatV1.02B3,2013-03-05 18:37:00,
2013-03-05 12:42:00,48.7,39.0,30.08,WNW,296,18.0,22.0,69,0.00,,,0.03,WeatherCatV1.02B3,2013-03-05 18:42:00,
2013-03-05 12:47:00,49.3,39.6,30.07,WNW,302,15.0,20.0,69,0.00,,,0.03,WeatherCatV1.02B3,2013-03-05 18:47:00,
2013-03-05 12:52:00,50.0,38.7,30.07,WNW,288,23.0,27.0,65,0.00,,,0.03,WeatherCatV1.02B3,2013-03-05 18:52:00,
2013-03-05 12:57:00,49.9,38.2,30.07,NW,308,23.0,24.0,64,0.00,,,0.03,WeatherCatV1.02B3,2013-03-05 18:57:00,
2013-03-05 13:02:00,49.8,38.1,30.07,NW,309,21.0,24.0,64,0.00,,,0.03,WeatherCatV1.02B3,2013-03-05 19:02:00,
2013-03-05 13:07:00,49.7,38.4,30.07,NW,311,19.0,29.0,65,0.00,,,0.03,WeatherCatV1.02B3,2013-03-05 19:07:00,
2013-03-05 13:12:00,50.4,38.7,30.07,NNW,327,13.0,25.0,64,0.00,,,0.03,WeatherCatV1.02B3,2013-03-05 19:12:00,
2013-03-05 13:17:00,51.2,39.8,30.06,NW,308,19.0,22.0,65,0.00,,,0.03,WeatherCatV1.02B3,2013-03-05 19:17:00,
2013-03-05 13:22:00,51.3,38.7,30.06,NW,311,14.0,23.0,62,0.00,,,0.03,WeatherCatV1.02B3,2013-03-05 19:22:00,
2013-03-05 13:27:00,51.8,40.0,30.06,NW,314,10.0,18.0,64,0.00,,,0.03,WeatherCatV1.02B3,2013-03-05 19:27:00,
2013-03-05 13:32:00,52.0,39.0,30.06,WNW,298,17.0,22.0,61,0.00,,,0.03,WeatherCatV1.02B3,2013-03-05 19:32:00,
2013-03-05 13:37:00,51.9,38.5,30.07,WNW,296,17.0,24.0,60,0.00,,,0.03,WeatherCatV1.02B3,2013-03-05 19:37:00,
2013-03-05 13:42:00,52.0,38.5,30.07,WNW,295,20.0,28.0,60,0.00,,,0.03,WeatherCatV1.02B3,2013-03-05 19:42:00,
2013-03-05 13:47:00,51.9,38.0,30.07,NW,308,21.0,24.0,59,0.00,,,0.03,WeatherCatV1.02B3,2013-03-05 19:47:00,
2013-03-05 13:52:00,52.0,36.8,30.07,NW,304,18.0,25.0,56,0.00,,,0.03,WeatherCatV1.02B3,2013-03-05 19:52:00,
2013-03-05 13:57:00,51.2,36.9,30.07,NW,305,16.0,24.0,58,0.00,,,0.03,WeatherCatV1.02B3,2013-03-05 19:57:00,
2013-03-05 14:02:00,51.2,37.4,30.07,NW,309,15.0,18.0,59,0.00,,,0.03,WeatherCatV1.02B3,2013-03-05 20:02:00,
2013-03-05 14:07:00,51.4,37.1,30.07,NW,312,15.0,22.0,58,0.00,,,0.03,WeatherCatV1.02B3,2013-03-05 20:07:00,
2013-03-05 14:12:00,51.7,37.4,30.08,WNW,294,16.0,21.0,58,0.00,,,0.03,WeatherCatV1.02B3,2013-03-05 20:12:00,
2013-03-05 14:17:00,52.3,38.4,30.08,WNW,300,8.0,19.0,59,0.00,,,0.03,WeatherCatV1.02B3,2013-03-05 20:17:00,
2013-03-05 14:22:00,52.8,37.5,30.08,NNW,328,15.0,21.0,56,0.00,,,0.03,WeatherCatV1.02B3,2013-03-05 20:22:00,
2013-03-05 14:27:00,53.3,37.5,30.08,WNW,290,17.0,22.0,55,0.00,,,0.03,WeatherCatV1.02B3,2013-03-05 20:27:00,
2013-03-05 14:32:00,53.0,36.8,30.08,WNW,284,15.0,20.0,54,0.00,,,0.03,WeatherCatV1.02B3,2013-03-05 20:32:00,
2013-03-05 14:37:00,52.7,36.1,30.08,WNW,303,15.0,22.0,53,0.00,,,0.03,WeatherCatV1.02B3,2013-03-05 20:37:00,
2013-03-05 14:42:00,52.9,37.2,30.08,NW,311,18.0,22.0,55,0.00,,,0.03,WeatherCatV1.02B3,2013-03-05 20:42:00,
2013-03-05 14:47:00,53.4,37.2,30.08,NW,308,14.0,20.0,54,0.00,,,0.03,WeatherCatV1.02B3,2013-03-05 20:47:00,
2013-03-05 14:52:00,53.6,36.9,30.09,WNW,300,10.0,22.0,53,0.00,,,0.03,WeatherCatV1.02B3,2013-03-05 20:52:00,
2013-03-05 14:57:00,53.5,36.8,30.09,NW,321,15.0,21.0,53,0.00,,,0.03,WeatherCatV1.02B3,2013-03-05 20:57:00,
2013-03-05 15:02:00,53.7,36.0,30.09,NW,310,18.0,23.0,51,0.00,,,0.03,WeatherCatV1.02B3,2013-03-05 21:02:00,
2013-03-05 15:07:00,53.8,35.1,30.09,NW,312,19.0,22.0,49,0.00,,,0.03,WeatherCatV1.02B3,2013-03-05 21:07:00,
2013-03-05 15:12:00,53.7,35.5,30.08,WNW,300,17.0,21.0,50,0.00,,,0.03,WeatherCatV1.02B3,2013-03-05 21:12:00,
2013-03-05 15:17:00,54.1,35.9,30.09,WNW,300,13.0,16.0,50,0.00,,,0.03,WeatherCatV1.02B3,2013-03-05 21:17:00,
2013-03-05 15:22:00,54.2,35.5,30.09,WNW,289,11.0,23.0,49,0.00,,,0.03,WeatherCatV1.02B3,2013-03-05 21:22:00,
2013-03-05 15:27:00,54.5,36.2,30.09,NW,313,17.0,17.0,50,0.00,,,0.03,WeatherCatV1.02B3,2013-03-05 21:27:00,
2013-03-05 15:32:00,54.4,35.1,30.09,NW,306,18.0,20.0,48,0.00,,,0.03,WeatherCatV1.02B3,2013-03-05 21:32:00,
2013-03-05 15:37:00,54.3,36.1,30.09,WNW,290,17.0,17.0,50,0.00,,,0.03,WeatherCatV1.02B3,2013-03-05 21:37:00,
2013-03-05 15:42:00,54.5,35.2,30.09,WNW,285,18.0,21.0,48,0.00,,,0.03,WeatherCatV1.02B3,2013-03-05 21:42:00,
2013-03-05 15:47:00,54.4,34.6,30.09,WNW,283,14.0,20.0,47,0.00,,,0.03,WeatherCatV1.02B3,2013-03-05 21:47:00,
2013-03-05 15:52:00,54.6,34.8,30.09,WNW,289,19.0,20.0,47,0.00,,,0.03,WeatherCatV1.02B3,2013-03-05 21:52:00,
2013-03-05 15:57:00,54.9,35.1,30.09,WNW,288,10.0,18.0,47,0.00,,,0.03,WeatherCatV1.02B3,2013-03-05 21:57:00,
2013-03-05 16:02:00,55.0,35.7,30.09,West,262,10.0,25.0,48,0.00,,,0.03,WeatherCatV1.02B3,2013-03-05 22:02:00,
2013-03-05 16:07:00,55.0,34.6,30.09,West,270,16.0,17.0,46,0.00,,,0.03,WeatherCatV1.02B3,2013-03-05 22:07:00,
2013-03-05 16:12:00,55.1,33.6,30.09,WNW,283,10.0,21.0,44,0.00,,,0.03,WeatherCatV1.02B3,2013-03-05 22:12:00,
2013-03-05 16:17:00,54.7,32.6,30.09,NW,315,19.0,26.0,43,0.00,,,0.03,WeatherCatV1.02B3,2013-03-05 22:17:00,
2013-03-05 16:22:00,54.6,32.6,30.09,WNW,290,13.0,21.0,43,0.00,,,0.03,WeatherCatV1.02B3,2013-03-05 22:22:00,
2013-03-05 16:27:00,54.5,31.9,30.09,NW,313,15.0,26.0,42,0.00,,,0.03,WeatherCatV1.02B3,2013-03-05 22:27:00,
2013-03-05 16:32:00,54.6,32.6,30.09,WNW,296,16.0,21.0,43,0.00,,,0.03,WeatherCatV1.02B3,2013-03-05 22:32:00,
2013-03-05 16:37:00,54.3,32.9,30.09,NW,305,14.0,20.0,44,0.00,,,0.03,WeatherCatV1.02B3,2013-03-05 22:37:00,
2013-03-05 16:42:00,54.4,32.9,30.10,WNW,294,14.0,18.0,44,0.00,,,0.03,WeatherCatV1.02B3,2013-03-05 22:42:00,
2013-03-05 16:47:00,54.5,33.6,30.09,WNW,291,18.0,19.0,45,0.00,,,0.03,WeatherCatV1.02B3,2013-03-05 22:47:00,
2013-03-05 16:52:00,54.2,31.6,30.10,WNW,292,21.0,21.0,42,0.00,,,0.03,WeatherCatV1.02B3,2013-03-05 22:52:00,
2013-03-05 16:57:00,54.1,32.7,30.10,WNW,302,12.0,17.0,44,0.00,,,0.03,WeatherCatV1.02B3,2013-03-05 22:57:00,
2013-03-05 17:02:00,53.9,31.3,30.10,WNW,302,11.0,22.0,42,0.00,,,0.03,WeatherCatV1.02B3,2013-03-05 23:02:00,
2013-03-05 17:07:00,53.7,32.3,30.10,NW,304,11.0,17.0,44,0.00,,,0.03,WeatherCatV1.02B3,2013-03-05 23:07:00,
2013-03-05 17:12:00,53.7,32.9,30.11,WNW,297,12.0,16.0,45,0.00,,,0.03,WeatherCatV1.02B3,2013-03-05 23:12:00,
2013-03-05 17:17:00,53.5,32.1,30.11,NW,313,18.0,18.0,44,0.00,,,0.03,WeatherCatV1.02B3,2013-03-05 23:17:00,
2013-03-05 17:22:00,53.4,31.5,30.11,WNW,290,15.0,16.0,43,0.00,,,0.03,WeatherCatV1.02B3,2013-03-05 23:22:00,
2013-03-05 17:27:00,53.2,31.3,30.11,WNW,302,17.0,17.0,43,0.00,,,0.03,WeatherCatV1.02B3,2013-03-05 23:27:00,
2013-03-05 17:32:00,52.8,30.9,30.11,NW,304,19.0,20.0,43,0.00,,,0.03,WeatherCatV1.02B3,2013-03-05 23:32:00,
2013-03-05 17:37:00,52.5,30.7,30.12,WNW,303,11.0,16.0,43,0.00,,,0.03,WeatherCatV1.02B3,2013-03-05 23:37:00,
2013-03-05 17:42:00,52.2,31.0,30.12,West,278,10.0,15.0,44,0.00,,,0.03,WeatherCatV1.02B3,2013-03-05 23:42:00,
2013-03-05 17:47:00,51.9,30.7,30.12,NW,311,14.0,17.0,44,0.00,,,0.03,WeatherCatV1.02B3,2013-03-05 23:47:00,
2013-03-05 17:52:00,51.6,29.8,30.12,WNW,288,15.0,18.0,43,0.00,,,0.03,WeatherCatV1.02B3,2013-03-05 23:52:00,
2013-03-05 17:57:00,51.5,29.8,30.12,WNW,287,12.0,17.0,43,0.00,,,0.03,WeatherCatV1.02B3,2013-03-05 23:57:00,
2013-03-05 18:02:00,51.2,28.9,30.13,West,281,14.0,16.0,42,0.00,,,0.03,WeatherCatV1.02B3,2013-03-06 00:02:00,
2013-03-05 18:07:00,50.9,28.6,30.13,NW,304,17.0,19.0,42,0.00,,,0.03,WeatherCatV1.02B3,2013-03-06 00:07:00,
2013-03-05 18:12:00,51.0,28.1,30.13,WNW,288,11.0,11.0,41,0.00,,,0.03,WeatherCatV1.02B3,2013-03-06 00:12:00,
2013-03-05 18:17:00,50.7,27.9,30.13,West,281,14.0,17.0,41,0.00,,,0.03,WeatherCatV1.02B3,2013-03-06 00:17:00,
2013-03-05 18:22:00,50.6,27.8,30.14,WNW,290,11.0,15.0,41,0.00,,,0.03,WeatherCatV1.02B3,2013-03-06 00:22:00,
2013-03-05 18:27:00,50.3,28.1,30.14,WNW,297,11.0,16.0,42,0.00,,,0.03,WeatherCatV1.02B3,2013-03-06 00:27:00,
2013-03-05 18:32:00,50.2,28.6,30.14,WNW,293,8.0,14.0,43,0.00,,,0.03,WeatherCatV1.02B3,2013-03-06 00:32:00,
2013-03-05 18:37:00,49.9,28.3,30.14,NW,305,10.0,14.0,43,0.00,,,0.03,WeatherCatV1.02B3,2013-03-06 00:37:00,
2013-03-05 18:42:00,49.7,28.7,30.14,NW,306,11.0,17.0,44,0.00,,,0.03,WeatherCatV1.02B3,2013-03-06 00:42:00,
2013-03-05 18:47:00,49.6,28.6,30.14,WNW,292,11.0,16.0,44,0.00,,,0.03,WeatherCatV1.02B3,2013-03-06 00:47:00,
2013-03-05 18:52:00,49.4,28.4,30.15,WNW,298,16.0,20.0,44,0.00,,,0.03,WeatherCatV1.02B3,2013-03-06 00:52:00,
2013-03-05 18:57:00,49.4,27.9,30.15,NW,311,15.0,15.0,43,0.00,,,0.03,WeatherCatV1.02B3,2013-03-06 00:57:00,
2013-03-05 19:02:00,49.3,27.8,30.16,NW,307,9.0,16.0,43,0.00,,,0.03,WeatherCatV1.02B3,2013-03-06 01:02:00,
2013-03-05 19:07:00,48.9,28.5,30.16,NW,309,9.0,11.0,45,0.00,,,0.03,WeatherCatV1.02B3,2013-03-06 01:07:00,
2013-03-05 19:12:00,48.6,28.2,30.16,NNW,330,10.0,12.0,45,0.00,,,0.03,WeatherCatV1.02B3,2013-03-06 01:12:00,
2013-03-05 19:17:00,48.3,28.5,30.16,NW,321,8.0,12.0,46,0.00,,,0.03,WeatherCatV1.02B3,2013-03-06 01:17:00,
2013-03-05 19:22:00,48.1,28.3,30.17,NW,304,8.0,10.0,46,0.00,,,0.03,WeatherCatV1.02B3,2013-03-06 01:22:00,
2013-03-05 19:27:00,47.9,28.7,30.17,NW,319,6.0,8.0,47,0.00,,,0.03,WeatherCatV1.02B3,2013-03-06 01:27:00,
2013-03-05 19:32:00,47.4,29.2,30.17,NW,317,5.0,8.0,49,0.00,,,0.03,WeatherCatV1.02B3,2013-03-06 01:32:00,
2013-03-05 19:37:00,47.0,29.8,30.17,NW,319,3.0,5.0,51,0.00,,,0.03,WeatherCatV1.02B3,2013-03-06 01:37:00,
2013-03-05 19:42:00,46.7,29.5,30.17,NW,320,5.0,7.0,51,0.00,,,0.03,WeatherCatV1.02B3,2013-03-06 01:42:00,
2013-03-05 19:47:00,46.5,29.8,30.18,NW,325,4.0,5.0,52,0.00,,,0.03,WeatherCatV1.02B3,2013-03-06 01:47:00,
2013-03-05 19:52:00,46.2,30.0,30.18,NNW,327,3.0,5.0,53,0.00,,,0.03,WeatherCatV1.02B3,2013-03-06 01:52:00,
2013-03-05 19:57:00,46.2,30.0,30.18,NNW,327,2.0,2.0,53,0.00,,,0.03,WeatherCatV1.02B3,2013-03-06 01:57:00,
2013-03-05 20:02:00,45.4,30.6,30.18,NNW,327,3.0,4.0,56,0.00,,,0.03,WeatherCatV1.02B3,2013-03-06 02:02:00,
2013-03-05 20:07:00,45.0,30.7,30.18,NNW,327,2.0,3.0,57,0.00,,,0.03,WeatherCatV1.02B3,2013-03-06 02:07:00,
2013-03-05 20:12:00,44.7,30.8,30.18,NNW,327,2.0,3.0,58,0.00,,,0.03,WeatherCatV1.02B3,2013-03-06 02:12:00,
2013-03-05 20:17:00,44.3,30.9,30.18,NNW,327,3.0,4.0,59,0.00,,,0.03,WeatherCatV1.02B3,2013-03-06 02:17:00,
2013-03-05 20:22:00,44.2,30.4,30.19,NW,315,6.0,6.0,58,0.00,,,0.03,WeatherCatV1.02B3,2013-03-06 02:22:00,
2013-03-05 20:27:00,44.7,30.4,30.19,NW,319,8.0,9.0,57,0.00,,,0.03,WeatherCatV1.02B3,2013-03-06 02:27:00,
2013-03-05 20:32:00,45.2,29.6,30.19,NW,306,9.0,11.0,54,0.00,,,0.03,WeatherCatV1.02B3,2013-03-06 02:32:00,
2013-03-05 20:37:00,45.6,28.5,30.19,NW,311,9.0,12.0,51,0.00,,,0.03,WeatherCatV1.02B3,2013-03-06 02:37:00,
2013-03-05 20:42:00,45.9,27.8,30.19,NW,308,10.0,11.0,49,0.00,,,0.03,WeatherCatV1.02B3,2013-03-06 02:42:00,
2013-03-05 20:47:00,45.9,27.8,30.19,NW,314,9.0,12.0,49,0.00,,,0.03,WeatherCatV1.02B3,2013-03-06 02:47:00,
2013-03-05 20:52:00,45.9,27.3,30.20,NW,306,9.0,11.0,48,0.00,,,0.03,WeatherCatV1.02B3,2013-03-06 02:52:00,
2013-03-05 20:57:00,45.6,27.6,30.20,WNW,295,6.0,8.0,49,0.00,,,0.03,WeatherCatV1.02B3,2013-03-06 02:57:00,
2013-03-05 21:02:00,45.4,27.4,30.20,NW,309,6.0,10.0,49,0.00,,,0.03,WeatherCatV1.02B3,2013-03-06 03:02:00,
2013-03-05 21:07:00,45.1,27.6,30.20,NW,311,7.0,9.0,50,0.00,,,0.03,WeatherCatV1.02B3,2013-03-06 03:07:00,
2013-03-05 21:12:00,45.0,27.5,30.20,NW,311,5.0,8.0,50,0.00,,,0.03,WeatherCatV1.02B3,2013-03-06 03:12:00,
2013-03-05 21:17:00,44.9,27.9,30.20,WNW,295,7.0,8.0,51,0.00,,,0.03,WeatherCatV1.02B3,2013-03-06 03:17:00,
2013-03-05 21:22:00,44.8,27.8,30.20,NW,310,6.0,8.0,51,0.00,,,0.03,WeatherCatV1.02B3,2013-03-06 03:22:00,
2013-03-05 21:27:00,44.7,27.7,30.21,NW,306,5.0,10.0,51,0.00,,,0.03,WeatherCatV1.02B3,2013-03-06 03:27:00,
2013-03-05 21:32:00,44.6,27.6,30.20,NW,305,8.0,8.0,51,0.00,,,0.03,WeatherCatV1.02B3,2013-03-06 03:32:00,
2013-03-05 21:37:00,44.4,27.4,30.21,NW,311,6.0,8.0,51,0.00,,,0.03,WeatherCatV1.02B3,2013-03-06 03:37:00,
2013-03-05 21:42:00,44.4,27.4,30.21,NW,308,6.0,9.0,51,0.00,,,0.03,WeatherCatV1.02B3,2013-03-06 03:42:00,
2013-03-05 21:47:00,44.3,27.3,30.21,NW,314,6.0,8.0,51,0.00,,,0.03,WeatherCatV1.02B3,2013-03-06 03:47:00,
2013-03-05 21:53:00,44.2,27.2,30.21,NW,309,9.0,10.0,51,0.00,,,0.03,WeatherCatV1.02B3,2013-03-06 03:53:00,
2013-03-05 21:58:00,44.1,27.6,30.22,WNW,303,7.0,9.0,52,0.00,,,0.03,WeatherCatV1.02B3,2013-03-06 03:58:00,
2013-03-05 22:03:00,43.9,27.4,30.22,NW,318,7.0,8.0,52,0.00,,,0.03,WeatherCatV1.02B3,2013-03-06 04:03:00,
2013-03-05 22:08:00,43.8,27.3,30.22,NW,311,7.0,9.0,52,0.00,,,0.03,WeatherCatV1.02B3,2013-03-06 04:08:00,
2013-03-05 22:13:00,43.8,27.3,30.22,NW,306,8.0,9.0,52,0.00,,,0.03,WeatherCatV1.02B3,2013-03-06 04:13:00,
2013-03-05 22:18:00,43.6,27.1,30.23,NW,311,7.0,8.0,52,0.00,,,0.03,WeatherCatV1.02B3,2013-03-06 04:18:00,
2013-03-05 22:23:00,43.3,27.3,30.23,NW,319,7.0,8.0,53,0.00,,,0.03,WeatherCatV1.02B3,2013-03-06 04:23:00,
2013-03-05 22:28:00,43.1,27.6,30.23,NW,315,7.0,9.0,54,0.00,,,0.03,WeatherCatV1.02B3,2013-03-06 04:28:00,
2013-03-05 22:33:00,43.1,27.1,30.23,NW,323,10.0,11.0,53,0.00,,,0.03,WeatherCatV1.02B3,2013-03-06 04:33:00,
2013-03-05 22:38:00,43.2,27.2,30.23,NW,318,7.0,9.0,53,0.00,,,0.03,WeatherCatV1.02B3,2013-03-06 04:38:00,
2013-03-05 22:43:00,43.1,27.6,30.23,NNW,327,5.0,9.0,54,0.00,,,0.03,WeatherCatV1.02B3,2013-03-06 04:43:00,
2013-03-05 22:48:00,42.8,27.8,30.23,NNW,334,6.0,8.0,55,0.00,,,0.03,WeatherCatV1.02B3,2013-03-06 04:48:00,
2013-03-05 22:53:00,42.8,27.3,30.23,NW,326,8.0,10.0,54,0.00,,,0.03,WeatherCatV1.02B3,2013-03-06 04:53:00,
2013-03-05 22:58:00,42.7,27.7,30.23,NNW,330,7.0,10.0,55,0.00,,,0.03,WeatherCatV1.02B3,2013-03-06 04:58:00,
2013-03-05 23:00:00,42.6,27.6,30.23,NW,323,6.0,8.0,55,0.00,,,0.03,WeatherCatV1.02B3,2013-03-06 05:00:00,
2013-03-05 23:05:00,42.7,27.7,30.23,NW,324,8.0,9.0,55,0.00,,,0.03,WeatherCatV1.02B3,2013-03-06 05:05:00,
2013-03-05 23:10:00,42.7,27.2,30.23,NW,325,9.0,15.0,54,0.00,,,0.03,WeatherCatV1.02B3,2013-03-06 05:10:00,
2013-03-05 23:15:00,42.8,27.8,30.23,NNW,327,8.0,12.0,55,0.00,,,0.03,WeatherCatV1.02B3,2013-03-06 05:15:00,
2013-03-05 23:20:00,42.8,27.8,30.23,NW,321,9.0,14.0,55,0.00,,,0.03,WeatherCatV1.02B3,2013-03-06 05:20:00,
2013-03-05 23:25:00,42.7,28.1,30.23,NNW,331,11.0,14.0,56,0.00,,,0.03,WeatherCatV1.02B3,2013-03-06 05:25:00,
2013-03-05 23:30:00,42.5,27.9,30.23,NNW,340,10.0,12.0,56,0.00,,,0.03,WeatherCatV1.02B3,2013-03-06 05:30:00,
2013-03-05 23:35:00,42.5,27.9,30.23,NW,317,10.0,13.0,56,0.00,,,0.03,WeatherCatV1.02B3,2013-03-06 05:35:00,
2013-03-05 23:40:00,42.2,28.5,30.24,NNW,341,7.0,12.0,58,0.00,,,0.03,WeatherCatV1.02B3,2013-03-06 05:40:00,
2013-03-05 23:45:00,42.0,28.3,30.24,NW,322,7.0,12.0,58,0.00,,,0.03,WeatherCatV1.02B3,2013-03-06 05:45:00,
2013-03-05 23:50:00,41.7,28.4,30.24,NW,321,9.0,9.0,59,0.00,,,0.03,WeatherCatV1.02B3,2013-03-06 05:50:00,
2013-03-05 23:55:00,41.6,28.8,30.24,NW,321,6.0,11.0,60,0.00,,,0.03,WeatherCatV1.02B3,2013-03-06 05:55:00,